Terminal Aerodrome Forecast
Issued by NWS Grand Rapids, MI

Home | Current Version | Previous Version | Text Only | Print | Product List | Glossary On
Versions: 1 2 3 4 5 6 7 8 9 10 11 12 13 14 15 16 17 18 19 20
815
FTUS43 KGRR 011928 AAB
TAFGRR
TAF AMD
KGRR 011928Z 0119/0218 06012KT P6SM OVC012
      TEMPO 0119/0123 OVC008
     FM020600 04008KT P6SM OVC015
     FM021300 03009KT P6SM SCT025=

USA.gov is the U.S. government's official web portal to all federal, state and local government web resources and services.